Regional Weather Roundup
Issued by NWS Sterling, VA

Home | Current Version | Previous Version | Graphics & Text | Print | Product List | Glossary On
Versions: 1 2 3 4 5 6 7 8 9 10 11 12 13 14 15 16 17 18 19 20 21 22 23 24 25 26 27 28 29 30 31 32 33 34 35 36 37 38 39 40 41 42 43 44 45 46 47 48 49 50
000
ASUS41 KLWX 311110
RWRLWX

REGIONAL WEATHER ROUNDUP
NATIONAL WEATHER SERVICE BALTIMORE MD/WASHINGTON DC
600 AM EST SAT JAN 31 2015

Note: "FAIR" indicates few or no clouds below 12,000 feet
with no significant weather and/or obstructions to visibility.
 TC=TEMPERATURE CELSIUS

 * =Non NWS site. Station does not report precipitation (e.g. rain,
    snow, etc.), thunder, or fog.

DCZ001-MDZ009-015-VAZ040>042-051-053>054-311200-
WASHINGTON METRO

CITY           SKY/WX    TMP DP  RH WIND       PRES   REMARKS
WASHINGTON NAT CLEAR     21   4  47 NW12G20   30.31S WCI   9
DULLES         CLEAR     17   2  51 NW12      30.29S WCI   4
ANDREWS AFB    CLEAR     18   4  53 NW15      30.27R WCI   3
FT BELVOIR     CLEAR     19   2  49 NW9       30.31S WCI   8
QUANTICO       CLEAR     20   3  48 N10       30.33R WCI   9
COLLEGE PARK*  CLEAR     19   7  58 NW6       30.29S
LEESBURG*      CLEAR     19   9  63 N12G18    30.30S WCI   7
MANASSAS*      CLEAR     18   7  62 N8        30.31R WCI   7
GAITHERSBURG*  CLEAR     16   3  57 NW15      30.29S WCI   1

$$

MDZ006>007-011-014-311200-
BALTIMORE METRO

CITY           SKY/WX    TMP DP  RH WIND       PRES   REMARKS
BWI AIRPORT    CLEAR     17   5  59 W9        30.26S WCI   6
MD SCIENCE CTR   N/A     19   2  47 MISG      30.27S
MARTIN STATE     N/A     18   3  53 W17       30.28S WCI   2
ANNAPOLIS      CLEAR     20   7  57 W9G21     30.27R WCI   9
FORT MEADE*    CLEAR     18   7  62 NW8       30.29S WCI   7

$$

MDZ012-015-019>023-311200-
MARYLAND EASTERN SHORE

CITY           SKY/WX    TMP DP  RH WIND       PRES   REMARKS
OCEAN CITY     CLEAR     19   1  45 NW12G25   30.21R WCI   7
SALISBURY      CLEAR     21   1  41 NW15G28   30.22S WCI   8
BAY BRIDGE AP*   N/A     21   5  49 NW16G28   30.26F WCI   7
CAMBRIDGE*     CLEAR     23   5  46 NW16G26   30.24S WCI  10
EASTON*        CLEAR     22   6  51 N15G26    30.28S WCI   8

$$

MDZ017>025-311200-
SOUTHERN MARYLAND

CITY           SKY/WX    TMP DP  RH WIND       PRES   REMARKS
PATUXENT RIVER CLEAR     20   5  52 NW23G33   30.27R WCI   3
ST INIGOES     CLEAR     20   4  50 NW10G18   30.28R WCI   9
LEONARDTOWN*   CLEAR     19   3  49 NW9G17    30.29R WCI   9

$$

MDZ003>005-311200-
NORTH CENTRAL MARYLAND

CITY           SKY/WX    TMP DP  RH WIND       PRES   REMARKS
FREDERICK*     NOT AVBL
HAGERSTOWN APT CLEAR     15   2  56 NW13      30.26F WCI   1
WESTMINSTER*   PTCLDY    14   1  57 NW10G16   30.21S WCI   1

$$

MDZ501>502-311200-
WESTERN MARYLAND

CITY           SKY/WX    TMP DP  RH WIND       PRES   REMARKS
OAKLAND*       CLEAR      3   3 100 W10       30.14R WCI -12
CUMBERLAND*    CLEAR     18   3  53 W8        30.35S WCI   7

$$

VAZ025>031-311200-
SHENANDOAH VALLEY

CITY           SKY/WX    TMP DP  RH WIND       PRES   REMARKS
WINCHESTER*    CLEAR     19   0  42 NW6       30.29R
FRONT ROYAL*   FAIR      21  -2  35 N9        30.27S WCI  11
LURAY*         FAIR      19   7  58 E3        30.26S
NEW MARKET*    FAIR      13   6  73 CALM      30.26S
STAUNTON*      CLEAR     13   6  74 CALM      30.27R
WAYNESBORO*    FAIR      19   1  47 W5        30.23R

$$

WVZ021-048>050-054>055-311200-
EASTERN WEST VIRGINIA PANHANDLE

CITY           SKY/WX    TMP DP  RH WIND       PRES   REMARKS
MARTINSBURG    CLEAR     17   0  47 NW13      30.29F WCI   4
PETERSBURG*    CLEAR     12   3  67 E3        30.31R

$$

VAZ036>039-050-311200-
CENTRAL FOOTHILLS

CITY           SKY/WX    TMP DP  RH WIND       PRES   REMARKS
CHARLOTTESVILL CLEAR     21   1  41 CALM      30.27R
CULPEPER*      CLEAR     14   9  79 CALM      30.29R
ORANGE*        CLEAR     14  10  85 CALM      30.30R
GORDONSVILLE*  FAIR      14   8  78 CALM      30.28R
WARRENTON*     FAIR      19   9  64 CALM      30.29R

$$

VAZ055>057-311200-
NORTH AND CENTRAL PIEDMONT

CITY           SKY/WX    TMP DP  RH WIND       PRES   REMARKS
FREDERICKSBRG* CLEAR     20   7  57 N5        30.30S
STAFFORD*      FAIR      19   2  49 CALM      30.34S

$$

NCZ024-NYZ072-PAZ021-071-VAZ022-071-311200-
OTHER REGIONAL OBSERVATIONS

CITY           SKY/WX    TMP DP  RH WIND       PRES   REMARKS
NEW YORK CITY  CLEAR     14  -4  44 NW15G26   30.12R WCI  -1
PHILADELPHIA   CLEAR     15  -3  44 NW20G26   30.21S WCI  -2
PITTSBURGH     CLOUDY     7   3  84 CALM      30.34R
ROANOKE        CLEAR     22   4  46 E3        30.29S
RICHMOND       CLEAR     20   7  57 N3        30.30R
RALEIGH        CLEAR     23   8  52 CALM      30.33R

$$

ANZ530>537-311200-
MARINE OBSERVATIONS

STATION/POSITION TIME  TEMP    WIND        PRES
                       AIR SEA DIR/SP/G
                 (UTC) (F)     (DEG/KT/KT) (MB)
THOMAS PT LIGHT  1100   20 34  320/ 15/ 17 1025.9R
BALT KEY BRIDGE  1100   20     300/ 19/ 23 1024.7F
COVE POINT       1100   19     340/ 23/ 26 1024.5S
LEWISETTA        1100   21 33  340/ 13/ 18 1025.4S
SOLOMONS ISLAND  1100      36                N/A
PINEY POINT      1100          350/ 23/ 25   N/A

$$




USA.gov is the U.S. government's official web portal to all federal, state and local government web resources and services.